Regional Weather Roundup
Issued by NWS Northern Indiana

Home | Current Version | Previous Version | Graphics & Text | Print | Product List | Glossary On
Versions: 1 2 3 4 5 6 7 8 9 10 11 12 13 14 15 16 17 18 19 20 21 22 23 24 25 26 27 28 29 30 31 32 33 34 35 36 37 38 39 40 41 42 43 44 45 46 47 48 49 50
000
ASUS43 KIWX 041600
RWRIWX

KIWX WEATHER ROUNDUP
NATIONAL WEATHER SERVICE NORTHERN INDIANA
1200 PM EDT MON MAY 04 2015

NOTE: "FAIR" INDICATES FEW OR NO CLOUDS BELOW 12,000 FEET WITH NO
SIGNIFICANT WEATHER AND/OR OBSTRUCTIONS TO VISIBILITY.

* THESE STATIONS ARE NOT UNDER NWS QUALITY CONTROL. THEY ALSO MAY NOT
  REPORT WEATHER SUCH AS PRECIPITATION OR FOG.

INZ001>027-041700-
NORTHERN INDIANA

CITY           SKY/WX    TMP DP  RH WIND       PRES   REMARKS
GARY*          PTSUNNY   70 N/A N/A SW6       30.10R
SOUTH BEND     CLOUDY    69  60  73 SW13      30.10R
ELKHART*       MOSUNNY   66  57  72 W10       30.10R
GOSHEN         CLOUDY    65  60  84 SW10      30.10R
ANGOLA*        MOSUNNY   61  52  72 SW9       30.10R
FORT WAYNE     LGT RAIN  61  58  90 SW10      30.14S
PERU/GRISSOM   DRIZZLE   60  58  96 S14       30.13R

$$
INZ028>050-041700-
CENTRAL INDIANA

CITY           SKY/WX    TMP DP  RH WIND       PRES   REMARKS
LAFAYETTE      CLOUDY    61  57  87 S9        30.12S
KOKOMO*        CLOUDY    59  57  94 S12       30.15R
MUNCIE*        CLOUDY    66  52  60 W12       30.18R
INDIANAPOLIS   LGT RAIN  60  56  86 S5        30.17R FOG

$$
MIZ043>046-050>051-056>058-064>065-071>073-077>080-041700-
SOUTHWEST LOWER MICHIGAN

CITY           SKY/WX    TMP DP  RH WIND       PRES   REMARKS
BATTLE CREEK   PTSUNNY   72  55  55 W16       30.07R
BENTON HARBOR  PTSUNNY   65  58  78 W14       30.09R
COLDWATER*     CLOUDY    65  56  72 W12       30.09R
HILLSDALE*     CLOUDY    68  56  65 W13       30.09R
HOLLAND        PTSUNNY   58  53  84 W13       30.09R
GRAND RAPIDS   PTSUNNY   67  56  67 W14G26    30.06R
KALAMAZOO      CLOUDY    71  56  58 W16G23    30.07R
STURGIS*       CLOUDY    64  59  82 SW12      30.09R
THREE RIVERS*  FAIR      69  57  67 SW9G17    30.08S

$$
OHZ001>008-015>018-024>025-041700-
NORTHWEST OHIO

CITY           SKY/WX    TMP DP  RH WIND       PRES   REMARKS
DEFIANCE       LGT RAIN  61  57  87 SW9       30.13R
FINDLAY        CLOUDY    72  54  53 W22G36    30.13R
TOLEDO EXPRESS LGT RAIN  64  55  72 SW21      30.10R
TOLEDO METCALF CLOUDY    70  52  52 W20G33    30.11R
LIMA           PTSUNNY   72  53  51 W23G29    30.15R

$$
AND FOR LAKE MICHIGAN COASTAL AND OPEN LAKE BUOY OBSERVATIONS

STATION/POSITION TEMP    WIND        PRES    VSBY  WAVE
                 AIR SEA DIR/SP/G                  HT/PER
                 (F)     (DEG/KT/KT) (MB)    (MI)  (FT/S)
CALUMET HARBOR    68     270/  5/  7   N/A
MICHIGAN CITY     62     230/ 12/ 12   N/A
BURNS HARBOR      58     320/  5/  7 1019.6R
SAINT JOSEPH      56     180/ 11/ 15 1018.6R
4 MI NW BRIDGMAN  52 48  250/  8/  8   N/A           1/ 3
MICHIGAN CITY     55 49  240/  6/  6   N/A           1
MICHIGAN CITY CG     55              1020.9   3 1/2  1

$$
&&


USA.gov is the U.S. government's official web portal to all federal, state and local government web resources and services.